Flight Track Log - Related Links

Times and Time Zones

All times are in EDT time to prevent confusion due to time zone crossing. See the SKW5208 flight status page for this flight to view local times or setup timezone preferences in your user account.

Time Position Orientation Groundspeed Altitude Reporting Facility
EDT Latitude Longitude Course Direction KTS MPH feet Rate Location/Type
Tue 02:56:32 PM 38.6928 -90.3968 348° North  Level FlightAware Approximate
Tue 02:56:43 PM 38.7667 -90.4167 206° Southwest 168 193 1,200  Level Gateway (St. Louis) TRACON
Tue 03:01:21 PM 38.5297 -90.5669 199° South 295 339 10,800 2,069 Climbing FAA TRACON SMA TRACON (SMA)
Tue 03:02:02 PM 38.4728 -90.5919 198° South 318 366 12,200 2,000 Climbing FAA TRACON SMA TRACON (SMA)
Tue 03:02:42 PM 38.4194 -90.6139 198° South 330 380 13,500 2,051 Climbing FAA TRACON SMA TRACON (SMA)
Tue 03:03:21 PM 38.3581 -90.6400 199° South 340 391 14,900 2,203 Climbing FAA TRACON SMA TRACON (SMA)
Tue 03:04:01 PM 38.2950 -90.6675 200° South 349 402 16,400 2,074 Climbing FAA TRACON SMA TRACON (SMA)
Tue 03:04:42 PM 38.2378 -90.6933 198° South 355 409 17,700 1,926 Climbing FAA TRACON SMA TRACON (SMA)
Tue 03:05:22 PM 38.1717 -90.7208 199° South 363 418 19,000 1,975 Climbing FAA TRACON SMA TRACON (SMA)
Tue 03:06:01 PM 38.1039 -90.7500 231° Southwest 372 428 20,300 1,973 Climbing FAA TRACON SMA TRACON (SMA)
Tue 03:06:35 PM 38.0564 -90.8244 198° South 368 423 21,400 1,596 Climbing Kansas City Center
Tue 03:07:35 PM 37.9639 -90.8633 199° South 382 440 22,800 1,350 Climbing Kansas City Center
Tue 03:08:35 PM 37.8608 -90.9075 198° South 389 448 24,100 1,450 Climbing Kansas City Center
Tue 03:09:35 PM 37.7517 -90.9522 199° South 401 461 25,700 1,500 Climbing Kansas City Center
Tue 03:10:35 PM 37.6425 -90.9994 199° South 406 467 27,100 1,400 Climbing Kansas City Center
Tue 03:11:35 PM 37.5333 -91.0464 198° South 411 473 28,500 1,222 Climbing Kansas City Center
Tue 03:13:22 PM 37.3150 -91.1339 198° South 446 513 30,500 1,150 Climbing Memphis Center
Tue 03:14:22 PM 37.2000 -91.1797 199° South 441 507 31,700 950 Climbing Memphis Center
Tue 03:15:22 PM 37.0831 -91.2306 198° South 441 507 32,400 942 Climbing Memphis Center
Tue 03:16:23 PM 36.9681 -91.2761 199° South 446 513 33,600 1,091 Climbing Memphis Center
Tue 03:17:23 PM 36.8489 -91.3267 198° South 444 511 34,600 1,059 Climbing Memphis Center
Tue 03:18:22 PM 36.7339 -91.3719 198° South 444 511 35,700 700 Climbing Memphis Center
Tue 03:19:23 PM 36.6231 -91.4169 198° South 432 497 36,000 149 Climbing Memphis Center
Tue 03:20:23 PM 36.5103 -91.4619 198° South 432 497 36,000  Level Memphis Center
Tue 03:21:22 PM 36.4078 -91.5044 198° South 437 503 36,000 150 Level Memphis Center
Tue 03:22:23 PM 36.2883 -91.5517 198° South 437 503 36,300 645 Climbing Memphis Center
Tue 03:23:23 PM 36.1775 -91.5964 198° South 432 497 37,300 857 Climbing Memphis Center
Tue 03:24:22 PM 36.0667 -91.6408 198° South 432 497 38,000 353 Climbing Memphis Center
Tue 03:25:22 PM 35.9556 -91.6853 196° South 427 491 38,000  Level Memphis Center
Tue 03:26:22 PM 35.8425 -91.7244 199° South 425 489 38,000  Level Memphis Center
Tue 03:27:23 PM 35.7294 -91.7711 197° South 430 495 38,000  Level Memphis Center
Tue 03:28:23 PM 35.6122 -91.8153 199° South 430 495 38,000  Level Memphis Center
Tue 03:29:22 PM 35.4947 -91.8642 197° South 442 509 38,000  Level Memphis Center
Tue 03:30:23 PM 35.3669 -91.9128 197° South 442 509 38,000  Level Memphis Center
Tue 03:31:23 PM 35.2475 -91.9589 198° South 442 509 38,000  Level Memphis Center
Tue 03:32:22 PM 35.1281 -92.0072 197° South 442 509 38,000  Level Memphis Center
Tue 03:33:23 PM 35.0147 -92.0483 198° South 442 509 38,000  Level Memphis Center
Tue 03:34:23 PM 34.8953 -92.0964 197° South 442 509 38,000  Level Memphis Center
Tue 03:35:35 PM 34.7567 -92.1494 195° South 447 514 38,000  Level Memphis Center
Tue 03:36:34 PM 34.6394 -92.1872 189° South 439 505 38,000  Level Memphis Center
Tue 03:37:35 PM 34.5158 -92.2122 189° South 439 505 38,000  Level Memphis Center
Tue 03:38:34 PM 34.3944 -92.2347 188° South 439 505 38,000  Level Memphis Center
Tue 03:39:35 PM 34.2753 -92.2550 189° South 444 511 38,000  Level Memphis Center
Tue 03:41:16 PM 34.0875 -92.2903 189° South 427 491 38,000  Level Fort Worth Center
Tue 03:42:16 PM 33.9675 -92.3125 190° South 427 491 38,000  Level Fort Worth Center
Tue 03:43:16 PM 33.8517 -92.3367 189° South 432 497 38,000  Level Fort Worth Center
Tue 03:44:16 PM 33.7314 -92.3586 188° South 438 504 38,000  Level Fort Worth Center
Tue 03:45:16 PM 33.6072 -92.3808 188° South 443 510 38,000  Level Fort Worth Center
Tue 03:46:16 PM 33.4889 -92.4000 189° South 443 510 38,000  Level Fort Worth Center
Tue 03:47:16 PM 33.3731 -92.4214 189° South 438 504 38,000  Level Fort Worth Center
Tue 03:48:16 PM 33.2528 -92.4431 189° South 438 504 38,000  Level Fort Worth Center
Tue 03:49:16 PM 33.1325 -92.4647 189° South 444 511 38,000  Level Fort Worth Center
Tue 03:50:16 PM 33.0125 -92.4864 190° South 444 511 38,000  Level Fort Worth Center
Tue 03:51:16 PM 32.8944 -92.5100 189° South 438 504 38,000  Level Fort Worth Center
Tue 03:53:16 PM 32.6442 -92.5578 188° South 440 506 38,000  Level Houston Center
Tue 03:54:16 PM 32.5356 -92.5764 191° South 440 506 38,000 -50 Level Houston Center
Tue 03:55:16 PM 32.4189 -92.6022 186° South 440 506 37,900  Descending Houston Center
Tue 03:56:16 PM 32.2978 -92.6183 191° South 435 501 38,000 50 Climbing Houston Center
Tue 03:57:16 PM 32.1808 -92.6442 188° South 435 501 38,000  Level Houston Center
Tue 03:58:16 PM 32.0639 -92.6625 196° South 430 495 38,000 -250 Level Houston Center
Tue 03:59:16 PM 31.9511 -92.7006 218° Southwest 430 495 37,500 -500 Descending Houston Center
Tue 04:00:16 PM 31.8606 -92.7850 220° Southwest 415 478 37,000 -550 Descending Houston Center
Tue 04:01:16 PM 31.7744 -92.8694 220° Southwest 415 478 36,400 -500 Descending Houston Center
Tue 04:02:16 PM 31.6903 -92.9514 219° Southwest 408 470 36,000 -200 Descending Houston Center
Tue 04:03:16 PM 31.6039 -93.0331 221° Southwest 403 464 36,000  Level Houston Center
Tue 04:04:16 PM 31.5217 -93.1172 218° Southwest 403 464 36,000  Level Houston Center
Tue 04:05:16 PM 31.4375 -93.1936 220° Southwest 403 464 36,000  Level Houston Center
Tue 04:06:15 PM 31.3467 -93.2822 215° Southwest 397 457 36,000  Level Houston Center
Tue 04:07:15 PM 31.2772 -93.3394 196° South 403 464 36,000 -149 Level Houston Center
Tue 04:08:16 PM 31.1639 -93.3786 198° South 385 443 35,700 -397 Descending Houston Center
Tue 04:09:16 PM 31.0592 -93.4181 216° Southwest 396 456 35,200 -500 Descending Houston Center
Tue 04:10:16 PM 30.9706 -93.4942 226° Southwest 396 456 34,700 -500 Descending Houston Center
Tue 04:11:16 PM 30.8942 -93.5847 224° Southwest 396 456 34,200 -1,650 Descending Houston Center
Tue 04:12:16 PM 30.8156 -93.6725 224° Southwest 396 456 31,400 -2,850 Descending Houston Center
Tue 04:13:16 PM 30.7369 -93.7603 225° Southwest 391 450 28,500 -2,950 Descending Houston Center
Tue 04:14:16 PM 30.6561 -93.8553 223° Southwest 403 464 25,500 -3,000 Descending Houston Center
Tue 04:15:16 PM 30.5733 -93.9450 224° Southwest 409 471 22,500 -3,184 Descending Houston Center
Tue 04:15:54 PM 30.5139 -94.0114 224° Southwest 410 472 20,300 -3,163 Descending Houston Center
Tue 04:17:25 PM 30.3967 -94.1433 224° Southwest 374 430 15,700 -2,831 Descending Houston Center
Tue 04:18:16 PM 30.3392 -94.2069 224° Southwest 386 444 13,600 -2,054 Descending Houston Center
Tue 04:19:16 PM 30.2686 -94.2844 225° Southwest 376 433 11,900 -850 Descending Houston Center
Tue 04:20:16 PM 30.2089 -94.3528 241° Southwest 341 392 11,900 -300 Level Houston Center
Tue 04:21:16 PM 30.1719 -94.4311 248° West 314 361 11,300 -891 Descending Houston Center
Tue 04:22:24 PM 30.1386 -94.5261 246° West 259 298 10,000 -1,100 Descending Houston Center
Tue 04:23:16 PM 30.1142 -94.5903 247° West 266 306 9,100 -1,018 Descending Houston Center
Tue 04:24:16 PM 30.0875 -94.6639 247° West 256 295 8,100 -700 Descending Houston Center
Tue 04:25:16 PM 30.0611 -94.7350 246° West 251 289 7,700 -750 Descending Houston Center
Tue 04:26:16 PM 30.0322 -94.8111 248° West 251 289 6,600 -850 Descending Houston Center
Tue 04:27:16 PM 30.0053 -94.8869 260° West 251 289 6,000 -600 Descending Houston Center
Tue 04:28:16 PM 29.9931 -94.9633 272° West 251 289 5,400 -550 Descending Houston Center
Tue 04:29:16 PM 29.9953 -95.0400 268° West 239 275 4,900 -850 Descending Houston Center
Tue 04:30:16 PM 29.9933 -95.1167 268° West 239 275 3,700 -1,200 Descending Houston Center

Login

Don't have an account? Register now (free) for customized features, flight alerts, and more!